STARLINK-31890, 59785

Orbit data source: Space-Track

STARLINK-31890, 59785 is a payload satellite owned by SpaceX/Seattle (US) in LEO that was launched on Sat, 18 May 2024 UTC via an FALCON 9 launch vehicle from the Air Force Eastern Test Range (AFETR). Payload-class satellites include a variety of spacecraft equipped with specific instruments for various scientific and technological missions. These include communications satellites like Starlink; space stations such as the ISS; scientific satellites like the Hubble; Earth observation satellites from companies like Planet Labs, Umbra, and HawkEye 360; GPS; miniature CubeSats for education and research; and military/defense satellites.

Loading next visibility...
Identifier
59785, 2024-093D
Orbit
LEO
Last TLE update
14 hours ago
Origin
Manufacturer
SpaceX/Seattle
Mission
Operational spacecraft
Bus & Motor
STARLINK V2M, Unknown motor
Mass
730 kg wet, ~700 kg dry
Launch date (UTC)
2024-05-18 (11 months ago)
Launch vehicle
FALCON 9
Launch site
Air Force Eastern Test Range (AFETR)
Object type
Payload
Rocket body
Debris
Shape & HBR
Unknown
Radar Cross Section
Large (>1 m²)

Expand to show TLE details & history

TLE from 14 hours ago
0 STARLINK-31890
1 59785U 24093D   25109.42884531  .00016176  00000-0  59576-3 0  9990
2 59785  42.9977 236.7186 0001294 289.2050  70.8662 15.27596242 53122
Epoch: 2025-04-19T10:17Z
Definitive object data (Epoch: 2025-04-19T10:17:32.234Z)
Latitude
Longitude
-125.43788°
Altitude
482.485 km
Speed
7.626 km/s
True Right ascension
15h 46m 52s
True Declination
0° 00' 00"
Sunlit
Object was in full shadow at TLE epoch
Visualization TLE readout
Latitude
-43.13048°
Longitude
138.9209°
Altitude
495.474 km
Speed
7.618 km/s
Apparent Right ascension
14h 00m 34s
Apparent Declination
-69° 53' 34"
Sunlit
Object is in full shadow
Visualization observer readout
Local Sidereal Time
06:53:46
Azimuth
153.375° SSE
Elevation
-42.713°
Doppler factor
1
Orbital elements
Apogee altitude
485.834 km
Perigee altitude
484.058 km
Semi-major axis
6,863.083 km
Eccentricity
0.0001294
Inclination
42.9977°
RAAN
236.7186°
Arg. of periapsis
289.205°
True anomaly
70.88021°
Mean anomaly
70.8662°
Eccentric anomaly
70.8732°
Mean motion
3.81737 °/min
BSTAR
0.00059576
Orbital period
94.31 mins
Loading maneuver chart data...
Loading SW <> Apogee altitude chart data...
Loading historical data...
Loading historical data...
Loading historical data...
Loading historical data...
Loading historical data...
Loading historical data...
Loading historical data...

STARLINK-31890 Visibility forecast

Observer location: undefined°, undefined°

Span
Click to sort rows by Start time (UTC) header in descending order
Start Az.
Max El. time (UTC)
Max El. Az.
Max El.
End time (UTC)
End Az.
7 mins2025-04-20 11:35:54.619Z221.136° SW2025-04-20 11:38:54.619Z172.609° S31.302°2025-04-20 11:42:54.619Z81.355° E
6 mins2025-04-20 13:15:54.619Z269.432° W2025-04-20 13:17:54.619Z312.224° NW41.033°2025-04-20 13:21:54.619Z70.749° E
6 mins2025-04-20 14:54:54.619Z292.228° WNW2025-04-20 14:57:54.619Z34.79° NE37.674°2025-04-20 15:00:54.619Z83.864° E
6 mins2025-04-20 16:33:54.619Z282.062° WNW2025-04-20 16:36:54.619Z164.849° S40.814°2025-04-20 16:39:54.619Z121.987° SE
|